FW9607 Weather Reports


Display with metric or nautical units.
time (UTC)temp
F
wind
direction
speed
MPH
gust
MPH
rain 1hr
in
rain 24hr
in
rain mn
in
humidity
%
barometer
mb
20260509030837 79 162 1.0 3.0 0.00 0.00 0.00 90 1007.3
20260509025837 80 152 1.0 2.0 0.00 0.00 0.00 90 1007.0
20260509025337 80 163 1.0 2.0 0.00 0.00 0.00 89 1006.9
20260509024837 80 157 1.0 3.0 0.00 0.00 0.00 89 1006.8
20260509024337 80 143 1.0 3.0 0.00 0.00 0.00 89 1006.7
20260509023837 80 164 1.0 3.0 0.00 0.00 0.00 89 1006.6
20260509023337 80 107 1.0 3.0 0.00 0.00 0.00 89 1006.5
20260509022833 80 144 1.0 3.0 0.00 0.00 0.00 89 1006.4
20260509022331 80 121 1.0 3.0 0.00 0.00 0.00 89 1006.4
20260509021828 80 137 1.0 3.0 0.00 0.00 0.00 89 1006.3
20260509021327 80 125 1.0 3.0 0.00 0.00 0.00 89 1006.2
20260509020827 80 159 2.0 5.0 0.00 0.00 0.00 89 1006.3
20260509020327 80 106 1.0 5.0 0.00 0.00 0.00 89 1006.2
20260509015825 80 171 2.0 4.0 0.00 0.00 0.00 89 1006.1
20260509014824 80 108 2.0 4.0 0.00 0.00 0.00 89 1005.9
20260509014324 80 89 2.0 4.0 0.00 0.00 0.00 89 1005.7
20260509013824 81 158 2.0 6.0 0.00 0.00 0.00 89 1005.8
20260509013325 81 141 2.0 6.0 0.00 0.00 0.00 89 1005.5
20260509012824 81 114 2.0 4.0 0.00 0.00 0.00 88 1005.5
20260509012325 81 137 1.0 4.0 0.00 0.00 0.00 88 1005.6
20260509011825 81 110 2.0 7.0 0.00 0.00 0.00 88 1005.5
20260509011322 81 142 2.0 7.0 0.00 0.00 0.00 88 1005.5
20260509010822 81 135 2.0 5.0 0.00 0.00 0.00 88 1005.4
20260509010322 81 83 2.0 7.0 0.00 0.00 0.00 88 1005.2
20260509005822 81 125 2.0 7.0 0.00 0.00 0.00 88 1005.1
20260509005322 81 158 2.0 6.0 0.00 0.00 0.00 88 1005.0
20260509004823 81 183 2.0 6.0 0.00 0.00 0.00 88 1005.0
20260509004322 81 132 3.0 6.0 0.00 0.00 0.00 88 1004.9
20260509003820 82 102 2.0 7.0 0.00 0.00 0.00 87 1005.0
20260509003320 82 116 3.0 7.0 0.00 0.00 0.00 87 1005.0
20260509002819 82 77 3.0 10.0 0.00 0.00 0.00 87 1004.9
20260509001820 82 115 3.0 6.0 0.00 0.00 0.00 86 1005.1
20260509000819 82 86 3.0 6.0 0.00 0.00 0.00 86 1005.2
20260509000320 83 131 2.0 6.0 0.00 0.00 0.00 85 1005.0
20260508235820 83 106 2.0 6.0 0.00 0.00 0.00 84 1005.1
20260508235320 83 117 2.0 7.0 0.00 0.00 0.00 84 1005.2
20260508234817 83 65 3.0 7.0 0.00 0.00 0.00 84 1005.1
20260508234318 83 149 3.0 7.0 0.00 0.00 0.00 84 1005.1
20260508233817 83 94 3.0 8.0 0.00 0.00 0.00 84 1005.1
20260508233318 84 122 3.0 8.0 0.00 0.00 0.00 83 1005.0
20260508232817 84 137 3.0 8.0 0.00 0.00 0.00 83 1005.0
20260508232314 84 103 3.0 8.0 0.00 0.00 0.00 82 1005.0
20260508231814 84 136 2.0 6.0 0.00 0.00 0.00 81 1005.2
20260508231315 84 85 2.0 8.0 0.00 0.00 0.00 81 1005.2
20260508230314 85 136 2.0 7.0 0.00 0.00 0.00 80 1005.1
20260508225315 85 127 4.0 7.0 0.00 0.00 0.00 79 1005.2
20260508223309 86 144 3.0 8.0 0.00 0.00 0.00 77 1005.2
20260508222309 86 147 3.0 8.0 0.00 0.00 0.00 77 1005.3
20260508221809 86 150 3.0 8.0 0.00 0.00 0.00 76 1005.3
20260508221309 86 165 3.0 10.0 0.00 0.00 0.00 77 1005.4
20260508220309 87 86 3.0 9.0 0.00 0.00 0.00 75 1005.5
20260508215810 87 105 3.0 7.0 0.00 0.00 0.00 74 1005.4
20260508215310 87 95 3.0 7.0 0.00 0.00 0.00 74 1005.6
20260508214809 87 130 3.0 8.0 0.00 0.00 0.00 74 1005.6
20260508214310 87 98 2.0 8.0 0.00 0.00 0.00 73 1005.7
20260508213810 88 123 2.0 6.0 0.00 0.00 0.00 73 1005.8
20260508213308 88 125 2.0 6.0 0.00 0.00 0.00 72 1005.8
20260508212308 88 149 2.0 6.0 0.00 0.00 0.00 72 1005.9
20260508211811 88 169 2.0 6.0 0.00 0.00 0.00 72 1006.0
20260508211308 88 107 2.0 6.0 0.00 0.00 0.00 72 1006.1
20260508210813 88 89 2.0 6.0 0.00 0.00 0.00 72 1006.2
20260508205811 88 125 2.0 7.0 0.00 0.00 0.00 71 1006.4
20260508205051 88 181 2.0 6.0 0.00 0.00 0.00 71 1006.5
20260508204557 88 135 2.0 5.0 0.00 0.00 0.00 71 1006.5
20260508204042 88 197 2.0 6.0 0.00 0.00 0.00 70 1006.5
20260508203538 89 156 2.0 6.0 0.00 0.00 0.00 70 1006.7
20260508203042 89 125 2.0 7.0 0.00 0.00 0.00 68 1006.7
20260508202538 89 0 2.0 7.0 0.00 0.00 0.00 69 1006.8
20260508202040 88 122 2.0 5.0 0.00 0.00 0.00 69 1006.9
20260508201455 88 193 2.0 5.0 0.00 0.00 0.00 69 1006.8
20260508200951 87 145 2.0 7.0 0.00 0.00 0.00 70 1006.9
20260508200448 88 161 2.0 7.0 0.00 0.00 0.00 70 1006.9
20260508195949 88 177 2.0 5.0 0.00 0.00 0.00 69 1007.0
20260508195449 88 135 2.0 5.0 0.00 0.00 0.00 69 1007.0
20260508194946 88 89 2.0 5.0 0.00 0.00 0.00 68 1007.1
20260508194446 88 134 2.0 5.0 0.00 0.00 0.00 69 1007.2
20260508193946 87 142 2.0 6.0 0.00 0.00 0.00 70 1007.1
20260508193446 87 13 2.0 6.0 0.00 0.00 0.00 71 1007.2
20260508192946 87 64 2.0 6.0 0.00 0.00 0.00 71 1007.2
20260508192446 88 55 3.0 8.0 0.00 0.00 0.00 71 1007.3
20260508191446 89 143 2.0 6.0 0.00 0.00 0.00 69 1007.5
20260508190946 89 209 2.0 6.0 0.00 0.00 0.00 69 1007.6
20260508190447 89 115 2.0 6.0 0.00 0.00 0.00 67 1007.6
20260508185947 89 125 2.0 6.0 0.00 0.00 0.00 68 1007.7
20260508184946 87 171 2.0 5.0 0.00 0.00 0.00 72 1007.8
20260508184443 87 109 2.0 7.0 0.00 0.00 0.00 72 1007.9
20260508183945 87 114 2.0 7.0 0.00 0.00 0.00 74 1008.0
20260508183441 86 73 2.0 7.0 0.00 0.00 0.00 75 1008.2
20260508182941 86 182 2.0 7.0 0.00 0.00 0.00 75 1008.3
20260508182441 86 124 3.0 8.0 0.00 0.00 0.00 74 1008.3
20260508181941 86 138 3.0 8.0 0.00 0.00 0.00 74 1008.4
20260508180941 85 186 2.0 5.0 0.00 0.00 0.00 76 1008.6
20260508180441 85 138 3.0 6.0 0.00 0.00 0.00 76 1008.7
20260508175941 84 17 2.0 6.0 0.00 0.00 0.00 79 1008.8
20260508174941 83 203 3.0 7.0 0.00 0.00 0.00 80 1009.0
20260508174450 83 124 3.0 7.0 0.00 0.00 0.00 80 1009.1
20260508173939 83 147 3.0 7.0 0.00 0.00 0.00 81 1009.1
20260508173438 83 135 2.0 6.0 0.00 0.00 0.00 81 1009.3
20260508172936 83 99 2.0 7.0 0.00 0.00 0.00 80 1009.3
20260508171936 83 104 2.0 6.0 0.00 0.00 0.00 80 1009.3
20260508171436 82 126 2.0 6.0 0.00 0.00 0.00 80 1009.5
20260508170935 82 149 2.0 6.0 0.00 0.01 0.00 81 1009.6
20260508170436 82 90 2.0 6.0 0.00 0.01 0.00 82 1009.6
20260508165936 82 110 2.0 6.0 0.00 0.01 0.00 82 1009.7
20260508165436 81 81 2.0 7.0 0.00 0.01 0.00 83 1009.7
20260508164936 81 64 2.0 7.0 0.00 0.01 0.00 83 1009.8
20260508164435 81 201 2.0 7.0 0.00 0.01 0.00 83 1009.8
20260508163936 80 161 3.0 8.0 0.00 0.01 0.00 85 1009.9
20260508163436 80 93 3.0 8.0 0.00 0.01 0.00 85 1009.8
20260508162933 80 108 2.0 6.0 0.00 0.01 0.00 85 1010.0
20260508162434 79 143 3.0 7.0 0.00 0.01 0.00 85 1010.0
20260508161930 79 56 3.0 7.0 0.00 0.01 0.00 85 1010.1
20260508161430 79 97 3.0 6.0 0.00 0.01 0.00 85 1010.1
20260508160431 78 150 2.0 6.0 0.00 0.01 0.00 85 1010.3
20260508155931 78 88 2.0 6.0 0.00 0.01 0.00 85 1010.1
20260508155431 77 121 2.0 6.0 0.00 0.01 0.00 86 1010.3
20260508154931 77 18 3.0 6.0 0.00 0.01 0.00 86 1010.4
20260508154431 76 79 4.0 6.0 0.00 0.01 0.00 88 1010.3
20260508153931 75 35 4.0 7.0 0.00 0.01 0.00 89 1010.4
20260508153431 74 54 4.0 7.0 0.00 0.01 0.00 89 1010.5
20260508152931 74 41 4.0 7.0 0.00 0.01 0.00 89 1010.5
20260508152431 74 56 4.0 7.0 0.00 0.01 0.00 89 1010.4
20260508151932 74 38 3.0 6.0 0.00 0.01 0.00 89 1010.5
20260508151431 74 78 3.0 5.0 0.00 0.01 0.00 90 1010.4
20260508150416 73 79 4.0 6.0 0.00 0.01 0.00 92 1010.6
20260508145908 72 60 4.0 6.0 0.00 0.01 0.00 92 1010.6
20260508145401 72 43 3.0 7.0 0.00 0.01 0.00 92 1010.5
20260508144902 72 79 3.0 7.0 0.00 0.01 0.00 92 1010.6
20260508144403 71 44 2.0 6.0 0.00 0.01 0.00 93 1010.7
20260508143902 71 53 3.0 5.0 0.00 0.01 0.00 93 1010.7
20260508142402 70 26 2.0 4.0 0.00 0.01 0.00 94 1010.6
20260508141902 70 95 3.0 4.0 0.00 0.01 0.00 94 1010.9
20260508140403 69 105 2.0 6.0 0.00 0.01 0.00 95 1010.9
20260508135407 69 93 2.0 4.0 0.00 0.01 0.00 96 1011.2
20260508134905 69 112 1.0 3.0 0.00 0.01 0.00 96 1011.3
20260508134407 69 85 1.0 3.0 0.00 0.01 0.00 96 1011.4
20260508133903 69 45 1.0 2.0 0.00 0.01 0.00 96 1011.3
20260508133405 69 96 2.0 3.0 0.00 0.01 0.00 96 1011.3
20260508132902 68 89 2.0 4.0 0.00 0.01 0.00 96 1011.2
20260508131901 68 49 2.0 4.0 0.00 0.01 0.00 97 1011.2
20260508131404 68 346 2.0 4.0 0.00 0.01 0.00 97 1011.1
20260508130900 68 94 2.0 4.0 0.00 0.01 0.00 97 1010.9
20260508130404 68 133 2.0 4.0 0.00 0.01 0.00 97 1011.0
20260508125901 68 130 3.0 6.0 0.00 0.01 0.00 97 1011.0
20260508125354 68 92 3.0 6.0 0.00 0.01 0.00 98 1010.8
20260508124351 68 69 3.0 4.0 0.00 0.01 0.00 98 1010.8
20260508123848 68 311 2.0 4.0 0.00 0.01 0.00 98 1011.1
20260508123351 68 83 2.0 4.0 0.00 0.01 0.00 98 1011.0
20260508122848 69 2 2.0 5.0 0.00 0.01 0.00 98 1011.0
20260508122351 69 210 2.0 5.0 0.00 0.01 0.00 98 1010.9
20260508121848 69 128 3.0 5.0 0.00 0.01 0.00 99 1010.9
20260508121352 69 205 3.0 7.0 0.00 0.01 0.00 99 1011.0
20260508120848 70 217 3.0 7.0 0.00 0.01 0.00 99 1011.2
20260508120345 70 212 3.0 6.0 0.00 0.01 0.00 99 1011.0
20260508115835 70 284 2.0 5.0 0.00 0.01 0.00 99 1011.1
20260508115339 70 90 2.0 5.0 0.00 0.01 0.00 99 1011.0
20260508114339 70 198 2.0 4.0 0.00 0.01 0.00 99 1011.0
20260508113340 70 211 2.0 4.0 0.00 0.01 0.00 99 1010.8
20260508112836 70 234 2.0 4.0 0.00 0.01 0.00 99 1010.7
20260508112339 70 212 2.0 5.0 0.00 0.01 0.00 99 1010.6
20260508111836 70 218 2.0 5.0 0.00 0.01 0.00 99 1010.3
20260508110836 69 101 2.0 3.0 0.00 0.01 0.00 99 1010.2
20260508105325 69 119 2.0 4.0 0.00 0.01 0.00 99 1010.0
20260508104310 69 153 2.0 4.0 0.00 0.01 0.00 99 1010.0
20260508103806 70 306 2.0 4.0 0.00 0.01 0.00 99 1009.9
20260508103310 69 147 3.0 4.0 0.00 0.01 0.00 99 1009.9
20260508102806 69 179 3.0 5.0 0.00 0.01 0.00 99 1009.9
20260508102311 69 176 3.0 5.0 0.00 0.01 0.00 99 1009.8
20260508101311 69 124 3.0 5.0 0.00 0.01 0.00 99 1009.5
20260508100806 69 161 3.0 4.0 0.00 0.01 0.00 99 1009.5
20260508100311 69 112 3.0 4.0 0.00 0.01 0.00 98 1009.4
20260508095807 69 115 3.0 5.0 0.00 0.01 0.00 99 1009.6
20260508095310 69 71 3.0 5.0 0.00 0.01 0.00 98 1009.6
20260508094806 69 112 3.0 4.0 0.00 0.01 0.00 98 1009.8
20260508094305 69 136 3.0 4.0 0.00 0.01 0.00 98 1009.8
20260508093753 69 177 2.0 4.0 0.00 0.01 0.00 98 1010.0
20260508093253 69 120 3.0 5.0 0.00 0.01 0.00 98 1010.0
20260508092752 69 99 3.0 5.0 0.00 0.01 0.00 98 1010.0
20260508091752 69 141 2.0 4.0 0.00 0.01 0.00 98 1010.2
20260508091253 69 130 2.0 5.0 0.00 0.01 0.00 98 1010.2
20260508090753 69 121 2.0 5.0 0.00 0.01 0.00 98 1010.2
20260508085752 69 151 2.0 4.0 0.00 0.01 0.00 98 1010.4
20260508084753 69 190 2.0 3.0 0.00 0.01 0.00 98 1010.4
20260508084253 69 128 2.0 3.0 0.00 0.01 0.00 98 1010.4
20260508083751 69 133 2.0 3.0 0.00 0.01 0.00 98 1010.5
20260508082736 70 156 2.0 3.0 0.00 0.01 0.00 98 1010.7
20260508082237 70 23 2.0 3.0 0.00 0.01 0.00 98 1010.8
20260508081737 70 174 2.0 2.0 0.00 0.01 0.00 98 1010.7
20260508081236 70 257 1.0 3.0 0.00 0.01 0.00 97 1010.7
20260508080738 70 169 2.0 3.0 0.00 0.01 0.00 97 1010.8
20260508080237 70 144 2.0 3.0 0.00 0.01 0.00 97 1011.2
20260508075736 70 158 2.0 3.0 0.00 0.01 0.00 97 1011.4
20260508075237 70 165 2.0 3.0 0.00 0.01 0.00 97 1011.5
20260508074737 70 158 2.0 2.0 0.00 0.01 0.00 97 1011.4
20260508074238 70 165 2.0 3.0 0.00 0.01 0.00 97 1011.2
20260508073737 70 158 2.0 4.0 0.00 0.01 0.00 96 1010.8
20260508073237 70 117 2.0 4.0 0.00 0.01 0.00 96 1011.1
20260508072738 70 210 2.0 4.0 0.00 0.01 0.00 96 1011.2
20260508072237 70 203 1.0 3.0 0.00 0.01 0.00 95 1011.2
20260508071722 70 326 0.0 3.0 0.00 0.01 0.00 95 1011.3
20260508071222 70 0 0.0 1.0 0.00 0.01 0.00 94 1011.5
20260508070722 71 0 0.0 2.0 0.00 0.01 0.00 94 1011.6
20260508070222 71 0 0.0 2.0 0.00 0.01 0.00 93 1011.8
20260508065727 71 0 1.0 4.0 0.00 0.01 0.00 93 1011.9
20260508065208 71 204 2.0 4.0 0.00 0.01 0.00 93 1012.0
20260508064713 71 259 3.0 4.0 0.00 0.01 0.00 92 1012.2
20260508064209 71 214 3.0 4.0 0.00 0.01 0.00 92 1012.2
20260508063713 71 244 2.0 4.0 0.00 0.01 0.00 92 1012.3
20260508063210 71 224 2.0 3.0 0.00 0.01 0.00 92 1012.2
20260508062711 72 180 1.0 3.0 0.00 0.01 0.00 93 1012.2
20260508062208 72 0 1.0 2.0 0.00 0.01 0.00 93 1012.1
20260508061711 72 314 0.0 2.0 0.00 0.01 0.00 93 1011.9
20260508061208 72 140 1.0 3.0 0.00 0.01 0.00 93 1011.8
20260508060711 72 0 1.0 3.0 0.00 0.01 0.00 93 1011.9
20260508060207 72 326 1.0 3.0 0.00 0.01 0.00 93 1011.9
20260508055707 72 139 1.0 3.0 0.00 0.01 0.00 93 1011.7
20260508055154 72 81 1.0 3.0 0.00 0.01 0.00 93 1011.8
20260508054653 72 132 1.0 2.0 0.00 0.01 0.00 93 1012.0
20260508054154 72 129 1.0 2.0 0.00 0.01 0.00 93 1012.0
20260508053154 72 92 1.0 3.0 0.00 0.01 0.00 93 1011.9
20260508052654 72 60 2.0 3.0 0.00 0.01 0.00 93 1011.6
20260508052154 71 102 2.0 4.0 0.00 0.01 0.00 93 1011.4
20260508051654 71 79 2.0 4.0 0.00 0.01 0.00 93 1011.2
20260508050654 71 0 1.0 3.0 0.00 0.01 0.00 92 1011.3
20260508050155 71 47 2.0 3.0 0.00 0.01 0.00 92 1011.3
20260508045639 71 59 2.0 3.0 0.00 0.01 0.01 92 1011.3
20260508045139 71 63 2.0 3.0 0.00 0.01 0.01 91 1011.5
20260508044640 71 102 1.0 3.0 0.00 0.01 0.01 91 1011.6
20260508044140 71 65 1.0 2.0 0.00 0.01 0.01 91 1011.7
20260508043640 72 94 1.0 2.0 0.00 0.01 0.01 90 1011.9
20260508043125 72 46 1.0 2.0 0.00 0.01 0.01 89 1012.0
20260508042624 72 0 1.0 4.0 0.00 0.01 0.01 88 1012.5
20260508042125 72 23 1.0 4.0 0.00 0.01 0.01 88 1012.5
20260508041625 72 83 2.0 4.0 0.00 0.01 0.01 87 1012.5
20260508040625 72 48 1.0 4.0 0.00 0.01 0.01 85 1012.5
20260508040125 72 326 1.0 4.0 0.00 0.01 0.01 85 1012.6
20260508035626 72 55 2.0 8.0 0.00 0.01 0.01 85 1012.2
20260508035122 72 22 3.0 8.0 0.00 0.01 0.01 85 1011.3
20260508034623 72 116 4.0 12.0 0.00 0.01 0.01 85 1010.5
20260508034118 72 46 5.0 12.0 0.00 0.01 0.01 84 1010.5
20260508033619 72 64 5.0 9.0 0.00 0.01 0.01 84 1010.5
20260508033118 72 109 5.0 10.0 0.00 0.01 0.01 84 1010.2
20260508032619 72 96 5.0 13.0 0.00 0.01 0.01 83 1009.8
20260508032118 72 89 5.0 13.0 0.00 0.01 0.01 83 1010.1